Flag for Mongolia Weather past 2 weeks in Ulaanbaatar, Mongolia

Now
48 °F

Clear.


Feels Like: 48 °F
Forecast: 48 / 71 °F
Wind: 1 mph from North

Location: Ulan-Bator

Current Time: May 30, 2015 at 6:20:24 AM

Latest Report: May 30, 2015 at 6:00 AM


Visibility: 10 mi

Pressure: 29.56 "Hg

Humidity: 43%

Dew point: 27 °F

Location of UlaanbaatarLocation

Historic Weather in Ulaanbaatar — Graph

°F

Ulaanbaatar temperature yesterday

Maximum temperature yesterday: 68 °F (at 5:00 PM)
Minimum temperature yesterday: 28 °F (at 6:30 AM)
Average temperature yesterday: 50 °F

Past Weeks' High & Low Weather Summary

 TemperatureHumidityPressure
High82 °F (May 23, 3:00 PM)88% (May 26, 4:00 AM)30.18 "Hg (May 26, 4:00 AM)
Low21 °F (May 19, 6:00 AM)8% (May 23, 5:00 PM)29.53 "Hg (May 17, 3:00 AM)
Average54 °F35%29.86 "Hg
* Reported May 15 5:00 AM — May 30 5:00 AM, Ulaanbaatar, Weather by CustomWeather, © 2015

Note: Actual official high and low records may vary slightly from our data, if they occured in-between our weather recording intervals... More about our weather records

Advertising

Ulaanbaatar weather history for previous 24 hours

 ConditionsComfort  
Time TempWeatherWind HumidityBarometerVisibility
5:00 AM
Sat, May 30
52 °FClear.3 mph38%29.56 "Hg10 mi
4:00 AM52 °FClear.1 mph41%29.62 "Hg10 mi
3:00 AM54 °FPassing clouds.1 mph38%29.62 "HgN/A
2:00 AM54 °FPassing clouds.1 mph38%29.65 "HgN/A
1:00 AM55 °FPassing clouds.1 mph36%29.68 "HgN/A
12:30 AM55 °FPassing clouds.3 mph33%29.68 "HgN/A
12:00 AM54 °FPassing clouds.No wind30%29.71 "HgN/A
11:30 PM
Fri, May 29
54 °FPassing clouds.3 mph30%29.71 "HgN/A
11:00 PM55 °FPassing clouds.No wind28%29.71 "HgN/A
10:30 PM57 °FScattered clouds.3 mph29%29.71 "HgN/A
10:00 PM59 °FScattered clouds.6 mph29%29.71 "HgN/A
9:30 PM64 °FScattered clouds.6 mph21%29.71 "HgN/A
9:00 PM64 °FScattered clouds.6 mph22%29.71 "HgN/A
8:30 PM66 °FScattered clouds.1 mph19%29.71 "HgN/A
8:00 PM66 °FScattered clouds.6 mph18%29.71 "HgN/A
7:30 PM68 °FScattered clouds.6 mph16%29.74 "HgN/A
7:00 PM66 °FScattered clouds.8 mph18%29.74 "HgN/A
6:30 PM66 °FScattered clouds.22 mph18%29.74 "HgN/A
6:00 PM68 °FScattered clouds.10 mph16%29.74 "HgN/A
5:30 PM68 °FPartly sunny.15 mph16%29.77 "HgN/A
5:00 PM68 °FPartly sunny.15 mph14%29.77 "HgN/A
4:30 PM66 °FPartly sunny.10 mph17%29.80 "HgN/A
4:00 PM66 °FPartly sunny.17 mph17%29.80 "HgN/A
3:30 PM66 °FScattered clouds.10 mph17%29.83 "HgN/A
3:00 PM64 °FScattered clouds.8 mph19%29.86 "HgN/A
2:30 PM63 °FScattered clouds.6 mph22%29.86 "HgN/A
2:00 PM64 °FScattered clouds.10 mph19%29.89 "HgN/A
1:30 PM61 °FScattered clouds.13 mph23%29.89 "HgN/A
1:00 PM59 °FScattered clouds.6 mph25%29.92 "HgN/A
12:30 PM59 °FPassing clouds.6 mph25%29.92 "HgN/A
12:00 PM57 °FPassing clouds.3 mph29%29.95 "HgN/A
11:30 AM55 °FPassing clouds.3 mph31%29.95 "HgN/A
11:00 AM54 °FPassing clouds.1 mph38%29.98 "HgN/A
10:30 AM50 °FPassing clouds.1 mph43%29.98 "HgN/A
10:00 AM46 °FSunny.No wind50%29.98 "Hg10 mi
9:30 AM45 °FSunny.3 mph53%29.98 "Hg10 mi
9:00 AM41 °FSunny.No wind61%30.01 "Hg10 mi
8:30 AM37 °FSunny.No wind70%30.01 "Hg10 mi
8:00 AM36 °FSunny.No wind75%30.01 "Hg10 mi
7:30 AM34 °FSunny.1 mph81%29.98 "Hg10 mi
7:00 AM30 °FSunny.1 mph86%29.98 "Hg10 mi
6:30 AM28 °FClear.No wind86%29.98 "Hg10 mi
6:00 AM32 °FClear.No wind75%29.98 "Hg10 mi
Weather by CustomWeather, © 2015

See weather overviewHow to use our weather pages